STARLINK-34284, 64212

Orbit data source: Space-Track

STARLINK-34284, 64212 is a payload satellite owned by SpaceX/Seattle (US) in LEO that was launched on Sat, 31 May 2025 UTC via an FALCON 9 launch vehicle from the Air Force Western Test Range (AFWTR). Payload-class satellites include a variety of spacecraft equipped with specific instruments for various scientific and technological missions. These include communications satellites like Starlink; space stations such as the ISS; scientific satellites like the Hubble; Earth observation satellites from companies like Planet Labs, Umbra, and HawkEye 360; GPS; miniature CubeSats for education and research; and military/defense satellites.

Loading next visibility...
Identifier
64212, 2025-117K
Orbit
LEO
Country
Flag of USUS
Related business
Manufacturer
SpaceX/Seattle
Mission
Operational Commercial Communications
Bus & Motor
STARLINK V2MO, Unknown motor
Mass
575 kg wet, ~530 kg dry
Launch date (UTC)
2025-05-31 (1 year ago)
Launch vehicle
FALCON 9
Launch site
Air Force Western Test Range (AFWTR)
Object type
Payload
Rocket body
Debris
Shape & HBR
Box + 1 Pan, 17.7 m
Radar Cross Section
41.120 m², Large (>1 m²)

Expand to show TLE details & history
Last TLE update: 9 hours ago

TLE from 9 hours ago
0 STARLINK-34284
1 64212U 25117K   26235.91668981 -.00018077  00000-0 -52495-3 0  9990
2 64212  53.1606 342.3174 0001547  87.9855  13.1521 15.34412024  5869
Epoch: 2026-08-23T22:00Z
TLE epoch observation values (Epoch: 2026-08-23T22:00:01.999Z)
Latitude
51.8938°
Longitude
148.30743°
Altitude
467.888 km
Speed
7.639 km/s
True Right ascension
06h 02m 05s
True Declination
51° 43' 10"
Sunlit
Object was in daylight at epoch
Visualization orbit readout
Latitude
Unknown
Longitude
Unknown
Altitude
Unknown
Speed
Unknown
Apparent Right ascension
Unknown
Apparent Declination
Unknown
Sunlit
N/A
Visualization observer readout
Local Sidereal Time
21:45:12
Azimuth
Unknown
Elevation
Unknown
Doppler factor
Unknown
Orbital elements
Apogee altitude
463.983 km
Perigee altitude
461.866 km
Semi-major axis
6,841.061 km
Eccentricity
0.00015
Inclination
53.1606°
RAAN
342.3174°
Arg. of periapsis
87.9855°
True anomaly
13.15613°
Mean anomaly
13.1521°
Eccentric anomaly
13.15412°
Mean motion
3.83582 °/min
Orbital period
93.85 mins
BSTAR
-0.00052495
Loading maneuver chart data...
Computing Atmospheric mass density...
Loading historical data...
Loading historical data...
Loading historical data...
Loading historical data...
Loading historical data...
Loading historical data...
Loading historical data...

Documentation

Showing up to 5 results
|